| time (UTC) | temp F | wind direction | speed MPH | gust MPH | rain 1hr in | rain 24hr in | rain mn in | humidity % | barometer mb |
| 20260507064042 | 52 | 331 | 3.0 | 6.0 | 0.00 | 0.29 | 0.00 | 80 | 1011.4 |
| 20260507063545 | 52 | 329 | 2.0 | 6.0 | 0.00 | 0.29 | 0.00 | 81 | 1011.6 |
| 20260507063053 | 52 | 296 | 0.0 | 2.0 | 0.00 | 0.29 | 0.00 | 82 | 1011.3 |
| 20260507062541 | 52 | 0 | 0.0 | 3.0 | 0.00 | 0.29 | 0.00 | 82 | 1011.5 |
| 20260507062037 | 52 | 0 | 0.0 | 3.0 | 0.00 | 0.29 | 0.00 | 82 | 1011.7 |
| 20260507061552 | 52 | 0 | 0.0 | 1.0 | 0.00 | 0.29 | 0.00 | 82 | 1011.4 |
| 20260507061042 | 52 | 0 | 0.0 | 1.0 | 0.00 | 0.29 | 0.00 | 82 | 1011.5 |
| 20260507060541 | 52 | 0 | 0.0 | 0.0 | 0.00 | 0.29 | 0.00 | 81 | 1011.6 |
| 20260507060058 | 53 | 0 | 0.0 | 0.0 | 0.00 | 0.29 | 0.00 | 81 | 1011.6 |
| 20260507055541 | 53 | 0 | 0.0 | 0.0 | 0.00 | 0.29 | 0.00 | 80 | 1011.4 |
| 20260507055042 | 53 | 0 | 0.0 | 0.0 | 0.00 | 0.29 | 0.00 | 79 | 1011.4 |
| 20260507054549 | 53 | 0 | 0.0 | 1.0 | 0.00 | 0.29 | 0.00 | 78 | 1011.4 |
| 20260507054042 | 53 | 0 | 0.0 | 2.0 | 0.00 | 0.29 | 0.00 | 77 | 1011.2 |
| 20260507053542 | 53 | 0 | 0.0 | 4.0 | 0.00 | 0.29 | 0.00 | 76 | 1011.1 |
| 20260507053054 | 53 | 290 | 2.0 | 4.0 | 0.00 | 0.29 | 0.00 | 76 | 1011.1 |
| 20260507052538 | 53 | 19 | 0.0 | 2.0 | 0.00 | 0.29 | 0.00 | 78 | 1011.1 |
| 20260507052042 | 53 | 19 | 0.0 | 2.0 | 0.00 | 0.29 | 0.00 | 78 | 1011.0 |
| 20260507051552 | 53 | 0 | 0.0 | 2.0 | 0.00 | 0.29 | 0.00 | 79 | 1011.0 |
| 20260507051041 | 53 | 0 | 0.0 | 3.0 | 0.00 | 0.29 | 0.00 | 78 | 1010.9 |
| 20260507050539 | 54 | 0 | 0.0 | 3.0 | 0.00 | 0.29 | 0.00 | 78 | 1011.0 |
| 20260507050052 | 54 | 19 | 0.0 | 5.0 | 0.00 | 0.29 | 0.00 | 77 | 1011.1 |
| 20260507045541 | 54 | 19 | 2.0 | 5.0 | 0.00 | 0.29 | 0.00 | 77 | 1011.1 |
| 20260507045041 | 54 | 55 | 0.0 | 4.0 | 0.00 | 0.29 | 0.00 | 76 | 1011.2 |
| 20260507044559 | 54 | 81 | 3.0 | 4.0 | 0.00 | 0.29 | 0.00 | 77 | 1011.1 |
| 20260507044041 | 54 | 19 | 1.0 | 7.0 | 0.00 | 0.29 | 0.00 | 76 | 1011.0 |
| 20260507043540 | 54 | 328 | 2.0 | 7.0 | 0.00 | 0.29 | 0.00 | 76 | 1011.2 |
| 20260507043048 | 54 | 0 | 1.0 | 6.0 | 0.00 | 0.29 | 0.00 | 77 | 1011.1 |
| 20260507042542 | 54 | 329 | 3.0 | 9.0 | 0.00 | 0.29 | 0.00 | 77 | 1011.0 |
| 20260507042044 | 54 | 360 | 3.0 | 9.0 | 0.00 | 0.29 | 0.00 | 78 | 1011.1 |
| 20260507041550 | 54 | 360 | 5.0 | 9.0 | 0.00 | 0.29 | 0.00 | 79 | 1010.8 |
| 20260507041038 | 54 | 311 | 2.0 | 8.0 | 0.00 | 0.29 | 0.00 | 78 | 1010.9 |
| 20260507040543 | 54 | 311 | 4.0 | 8.0 | 0.00 | 0.29 | 0.00 | 78 | 1011.1 |
| 20260507040045 | 54 | 5 | 0.0 | 5.0 | 0.00 | 0.29 | 0.00 | 80 | 1011.1 |
| 20260507035541 | 54 | 0 | 0.0 | 5.0 | 0.00 | 0.29 | 0.29 | 79 | 1011.0 |
| 20260507035042 | 54 | 9 | 2.0 | 6.0 | 0.00 | 0.29 | 0.29 | 79 | 1010.9 |
| 20260507034608 | 54 | 18 | 3.0 | 6.0 | 0.00 | 0.29 | 0.29 | 79 | 1010.8 |
| 20260507034037 | 54 | 26 | 2.0 | 7.0 | 0.00 | 0.29 | 0.29 | 79 | 1010.6 |
| 20260507033541 | 54 | 5 | 1.0 | 8.0 | 0.00 | 0.29 | 0.29 | 80 | 1010.8 |
| 20260507033049 | 54 | 28 | 4.0 | 8.0 | 0.00 | 0.29 | 0.29 | 81 | 1010.9 |
| 20260507032542 | 54 | 86 | 1.0 | 10.0 | 0.00 | 0.29 | 0.29 | 81 | 1011.0 |
| 20260507032040 | 55 | 14 | 0.0 | 10.0 | 0.00 | 0.29 | 0.29 | 82 | 1010.8 |
| 20260507031553 | 55 | 11 | 4.0 | 10.0 | 0.00 | 0.29 | 0.29 | 81 | 1011.1 |
| 20260507031041 | 55 | 5 | 5.0 | 9.0 | 0.00 | 0.29 | 0.29 | 80 | 1011.0 |
| 20260507030543 | 55 | 0 | 1.0 | 4.0 | 0.00 | 0.29 | 0.29 | 80 | 1010.8 |
| 20260507030050 | 55 | 0 | 1.0 | 5.0 | 0.00 | 0.29 | 0.29 | 80 | 1010.8 |
| 20260507025544 | 55 | 0 | 1.0 | 5.0 | 0.00 | 0.29 | 0.29 | 81 | 1011.0 |
| 20260507025038 | 55 | 0 | 2.0 | 11.0 | 0.00 | 0.29 | 0.29 | 81 | 1011.0 |
| 20260507024555 | 55 | 325 | 3.0 | 12.0 | 0.00 | 0.29 | 0.29 | 82 | 1010.7 |
| 20260507024038 | 55 | 340 | 7.0 | 12.0 | 0.00 | 0.29 | 0.29 | 82 | 1010.4 |
| 20260507023540 | 55 | 344 | 8.0 | 13.0 | 0.00 | 0.29 | 0.29 | 82 | 1010.4 |
| 20260507023051 | 55 | 50 | 5.0 | 13.0 | 0.00 | 0.29 | 0.29 | 82 | 1010.6 |
| 20260507022537 | 55 | 336 | 2.0 | 13.0 | 0.00 | 0.29 | 0.29 | 82 | 1010.8 |
| 20260507022038 | 55 | 308 | 9.0 | 13.0 | 0.00 | 0.29 | 0.29 | 82 | 1010.7 |
| 20260507021551 | 56 | 330 | 7.0 | 14.0 | 0.00 | 0.29 | 0.29 | 82 | 1010.5 |
| 20260507021040 | 55 | 270 | 6.0 | 14.0 | 0.00 | 0.29 | 0.29 | 83 | 1010.8 |
| 20260507020541 | 55 | 305 | 8.0 | 14.0 | 0.00 | 0.29 | 0.29 | 83 | 1010.6 |
| 20260507020051 | 55 | 321 | 4.0 | 14.0 | 0.00 | 0.29 | 0.29 | 84 | 1010.4 |
| 20260507015541 | 55 | 314 | 6.0 | 11.0 | 0.00 | 0.29 | 0.29 | 84 | 1010.6 |
| 20260507015041 | 55 | 319 | 7.0 | 11.0 | 0.00 | 0.29 | 0.29 | 84 | 1010.3 |
| 20260507014554 | 56 | 319 | 6.0 | 10.0 | 0.00 | 0.29 | 0.29 | 84 | 1010.3 |
| 20260507014041 | 56 | 321 | 4.0 | 8.0 | 0.00 | 0.29 | 0.29 | 83 | 1010.4 |
| 20260507013541 | 57 | 326 | 3.0 | 9.0 | 0.00 | 0.29 | 0.29 | 83 | 1010.4 |
| 20260507013100 | 57 | 300 | 4.0 | 9.0 | 0.00 | 0.29 | 0.29 | 82 | 1010.5 |
| 20260507012540 | 57 | 336 | 2.0 | 8.0 | 0.00 | 0.29 | 0.29 | 82 | 1010.3 |
| 20260507012041 | 57 | 341 | 4.0 | 9.0 | 0.00 | 0.29 | 0.29 | 82 | 1010.3 |
| 20260507011545 | 57 | 346 | 2.0 | 14.0 | 0.00 | 0.29 | 0.29 | 82 | 1010.1 |
| 20260507011042 | 57 | 9 | 8.0 | 16.0 | 0.00 | 0.29 | 0.29 | 82 | 1010.0 |
| 20260507010540 | 58 | 349 | 8.0 | 16.0 | 0.00 | 0.29 | 0.29 | 82 | 1010.1 |
| 20260507010053 | 58 | 325 | 11.0 | 16.0 | 0.00 | 0.29 | 0.29 | 82 | 1010.3 |
| 20260507005540 | 58 | 321 | 10.0 | 14.0 | 0.00 | 0.29 | 0.29 | 82 | 1010.4 |
| 20260507005043 | 58 | 321 | 7.0 | 14.0 | 0.00 | 0.29 | 0.29 | 82 | 1010.2 |
| 20260507004550 | 58 | 322 | 9.0 | 15.0 | 0.00 | 0.29 | 0.29 | 82 | 1010.1 |
| 20260507004041 | 58 | 331 | 7.0 | 18.0 | 0.00 | 0.29 | 0.29 | 82 | 1010.1 |
| 20260507003542 | 58 | 315 | 10.0 | 18.0 | 0.00 | 0.29 | 0.29 | 82 | 1010.1 |
| 20260507003047 | 59 | 303 | 11.0 | 16.0 | 0.00 | 0.29 | 0.29 | 82 | 1010.0 |
| 20260507002544 | 59 | 289 | 10.0 | 16.0 | 0.00 | 0.29 | 0.29 | 82 | 1009.9 |
| 20260507002041 | 59 | 319 | 9.0 | 13.0 | 0.00 | 0.29 | 0.29 | 83 | 1009.7 |
| 20260507001553 | 59 | 288 | 8.0 | 13.0 | 0.00 | 0.29 | 0.29 | 83 | 1009.7 |
| 20260507001040 | 60 | 322 | 4.0 | 9.0 | 0.00 | 0.29 | 0.29 | 83 | 1009.6 |
| 20260507000544 | 60 | 300 | 6.0 | 9.0 | 0.00 | 0.29 | 0.29 | 83 | 1009.7 |
| 20260507000055 | 60 | 288 | 2.0 | 8.0 | 0.00 | 0.29 | 0.29 | 83 | 1009.6 |
| 20260506235541 | 60 | 268 | 5.0 | 8.0 | 0.00 | 0.29 | 0.29 | 83 | 1009.5 |
| 20260506235043 | 60 | 307 | 1.0 | 7.0 | 0.00 | 0.29 | 0.29 | 84 | 1009.3 |
| 20260506234543 | 61 | 309 | 2.0 | 6.0 | 0.00 | 0.29 | 0.29 | 84 | 1008.9 |
| 20260506234039 | 61 | 302 | 1.0 | 6.0 | 0.00 | 0.29 | 0.29 | 83 | 1008.7 |
| 20260506233540 | 61 | 313 | 0.0 | 14.0 | 0.00 | 0.29 | 0.29 | 84 | 1008.6 |
| 20260506233052 | 61 | 0 | 3.0 | 14.0 | 0.00 | 0.29 | 0.29 | 84 | 1008.7 |
| 20260506232537 | 61 | 284 | 6.0 | 14.0 | 0.00 | 0.29 | 0.29 | 84 | 1008.7 |
| 20260506232040 | 61 | 264 | 4.0 | 12.0 | 0.00 | 0.29 | 0.29 | 83 | 1008.5 |
| 20260506231551 | 62 | 309 | 3.0 | 12.0 | 0.00 | 0.29 | 0.29 | 84 | 1008.6 |
| 20260506231041 | 62 | 281 | 8.0 | 12.0 | 0.00 | 0.29 | 0.29 | 84 | 1008.7 |
| 20260506230540 | 62 | 302 | 3.0 | 11.0 | 0.01 | 0.29 | 0.29 | 85 | 1008.5 |
| 20260506230050 | 62 | 273 | 5.0 | 12.0 | 0.01 | 0.29 | 0.29 | 85 | 1008.4 |
| 20260506225541 | 62 | 289 | 8.0 | 12.0 | 0.01 | 0.29 | 0.29 | 85 | 1008.4 |
| 20260506225041 | 63 | 304 | 7.0 | 12.0 | 0.01 | 0.29 | 0.29 | 85 | 1008.2 |
| 20260506224602 | 63 | 300 | 6.0 | 12.0 | 0.01 | 0.29 | 0.29 | 85 | 1008.2 |
| 20260506224042 | 63 | 258 | 5.0 | 12.0 | 0.01 | 0.29 | 0.29 | 85 | 1008.4 |
| 20260506223540 | 63 | 241 | 3.0 | 9.0 | 0.01 | 0.29 | 0.29 | 86 | 1008.3 |
| 20260506223051 | 63 | 266 | 4.0 | 9.0 | 0.01 | 0.29 | 0.29 | 87 | 1008.3 |
| 20260506222540 | 63 | 273 | 3.0 | 8.0 | 0.01 | 0.29 | 0.29 | 87 | 1008.1 |
| 20260506222040 | 63 | 249 | 2.0 | 8.0 | 0.01 | 0.29 | 0.29 | 87 | 1008.3 |
| 20260506221554 | 63 | 261 | 1.0 | 11.0 | 0.01 | 0.29 | 0.29 | 86 | 1008.3 |
| 20260506221041 | 64 | 305 | 4.0 | 12.0 | 0.01 | 0.29 | 0.29 | 85 | 1008.2 |
| 20260506220541 | 64 | 252 | 6.0 | 12.0 | 0.00 | 0.28 | 0.28 | 85 | 1008.3 |
| 20260506220045 | 65 | 257 | 3.0 | 9.0 | 0.00 | 0.28 | 0.28 | 86 | 1008.2 |
| 20260506215542 | 65 | 289 | 4.0 | 8.0 | 0.00 | 0.28 | 0.28 | 85 | 1008.3 |
| 20260506215041 | 65 | 221 | 0.0 | 4.0 | 0.00 | 0.28 | 0.28 | 85 | 1007.8 |
| 20260506214606 | 65 | 0 | 1.0 | 6.0 | 0.00 | 0.28 | 0.28 | 85 | 1007.9 |
| 20260506214041 | 65 | 0 | 0.0 | 10.0 | 0.00 | 0.28 | 0.28 | 85 | 1007.6 |
| 20260506213543 | 65 | 221 | 2.0 | 10.0 | 0.00 | 0.28 | 0.28 | 85 | 1007.7 |
| 20260506213047 | 65 | 166 | 4.0 | 9.0 | 0.00 | 0.28 | 0.28 | 84 | 1007.6 |
| 20260506212541 | 65 | 0 | 1.0 | 7.0 | 0.00 | 0.28 | 0.28 | 84 | 1007.6 |
| 20260506212041 | 66 | 227 | 1.0 | 7.0 | 0.00 | 0.28 | 0.28 | 84 | 1007.5 |
| 20260506211554 | 66 | 0 | 2.0 | 8.0 | 0.00 | 0.28 | 0.28 | 84 | 1007.3 |
| 20260506211041 | 66 | 212 | 0.0 | 9.0 | 0.00 | 0.28 | 0.28 | 86 | 1007.4 |
| 20260506210541 | 65 | 0 | 4.0 | 9.0 | 0.00 | 0.28 | 0.28 | 85 | 1007.4 |
| 20260506210053 | 66 | 229 | 1.0 | 7.0 | 0.00 | 0.28 | 0.28 | 86 | 1007.5 |
| 20260506205540 | 66 | 0 | 2.0 | 7.0 | 0.00 | 0.28 | 0.28 | 86 | 1007.3 |
| 20260506205040 | 66 | 250 | 1.0 | 3.0 | 0.00 | 0.28 | 0.28 | 87 | 1007.3 |
| 20260506204610 | 66 | 0 | 0.0 | 4.0 | 0.00 | 0.28 | 0.28 | 87 | 1007.3 |
| 20260506204041 | 66 | 252 | 0.0 | 4.0 | 0.00 | 0.28 | 0.28 | 87 | 1007.3 |
| 20260506203541 | 66 | 220 | 0.0 | 4.0 | 0.00 | 0.28 | 0.28 | 88 | 1007.3 |
| 20260506203052 | 65 | 182 | 0.0 | 5.0 | 0.00 | 0.28 | 0.28 | 88 | 1007.1 |
| 20260506202540 | 66 | 192 | 2.0 | 7.0 | 0.00 | 0.28 | 0.28 | 88 | 1007.1 |
| 20260506202040 | 65 | 192 | 3.0 | 7.0 | 0.00 | 0.28 | 0.28 | 89 | 1007.2 |
| 20260506201552 | 65 | 0 | 1.0 | 6.0 | 0.00 | 0.28 | 0.28 | 90 | 1007.2 |
| 20260506201040 | 65 | 0 | 2.0 | 6.0 | 0.00 | 0.28 | 0.28 | 91 | 1007.3 |
| 20260506200538 | 64 | 173 | 0.0 | 6.0 | 0.00 | 0.28 | 0.28 | 91 | 1007.3 |
| 20260506200048 | 64 | 182 | 1.0 | 4.0 | 0.00 | 0.28 | 0.28 | 91 | 1007.2 |
| 20260506195541 | 64 | 0 | 0.0 | 4.0 | 0.00 | 0.28 | 0.28 | 92 | 1007.3 |
| 20260506195044 | 63 | 176 | 1.0 | 5.0 | 0.01 | 0.28 | 0.28 | 92 | 1007.4 |
| 20260506194605 | 63 | 0 | 2.0 | 6.0 | 0.01 | 0.28 | 0.28 | 92 | 1007.3 |
| 20260506194046 | 63 | 0 | 1.0 | 6.0 | 0.01 | 0.28 | 0.28 | 92 | 1007.4 |
| 20260506193541 | 63 | 134 | 1.0 | 9.0 | 0.02 | 0.28 | 0.28 | 92 | 1007.4 |
| 20260506193054 | 63 | 125 | 4.0 | 9.0 | 0.02 | 0.28 | 0.28 | 92 | 1007.4 |
| 20260506192540 | 63 | 119 | 1.0 | 4.0 | 0.02 | 0.28 | 0.28 | 93 | 1007.3 |
| 20260506192041 | 63 | 0 | 1.0 | 5.0 | 0.02 | 0.28 | 0.28 | 93 | 1007.4 |
| 20260506191552 | 62 | 138 | 2.0 | 5.0 | 0.03 | 0.28 | 0.28 | 93 | 1007.4 |
| 20260506191040 | 62 | 156 | 0.0 | 5.0 | 0.03 | 0.28 | 0.28 | 92 | 1007.5 |
| 20260506190540 | 62 | 157 | 2.0 | 7.0 | 0.03 | 0.28 | 0.28 | 92 | 1007.6 |
| 20260506190051 | 62 | 138 | 2.0 | 7.0 | 0.03 | 0.28 | 0.28 | 92 | 1007.5 |
| 20260506185541 | 62 | 138 | 2.0 | 5.0 | 0.03 | 0.28 | 0.28 | 92 | 1007.6 |
| 20260506185041 | 62 | 138 | 2.0 | 8.0 | 0.02 | 0.27 | 0.27 | 92 | 1007.7 |
| 20260506184551 | 62 | 132 | 3.0 | 8.0 | 0.02 | 0.27 | 0.27 | 92 | 1007.7 |
| 20260506184041 | 62 | 134 | 4.0 | 7.0 | 0.02 | 0.27 | 0.27 | 91 | 1007.7 |
| 20260506183541 | 62 | 146 | 3.0 | 6.0 | 0.01 | 0.26 | 0.26 | 91 | 1007.8 |
| 20260506183056 | 62 | 159 | 2.0 | 9.0 | 0.01 | 0.26 | 0.26 | 91 | 1007.9 |
| 20260506182540 | 62 | 137 | 3.0 | 9.0 | 0.01 | 0.26 | 0.26 | 91 | 1007.8 |
| 20260506182040 | 62 | 165 | 3.0 | 9.0 | 0.01 | 0.26 | 0.26 | 91 | 1007.8 |
| 20260506181547 | 62 | 169 | 3.0 | 9.0 | 0.00 | 0.25 | 0.25 | 90 | 1007.9 |
| 20260506181042 | 62 | 122 | 4.0 | 9.0 | 0.00 | 0.25 | 0.25 | 90 | 1007.8 |
| 20260506180541 | 62 | 152 | 3.0 | 8.0 | 0.00 | 0.25 | 0.25 | 89 | 1007.8 |
| 20260506180049 | 62 | 157 | 3.0 | 7.0 | 0.00 | 0.25 | 0.25 | 89 | 1007.8 |
| 20260506175541 | 62 | 163 | 3.0 | 7.0 | 0.00 | 0.25 | 0.25 | 89 | 1007.8 |
| 20260506175044 | 62 | 178 | 2.0 | 7.0 | 0.00 | 0.25 | 0.25 | 89 | 1007.8 |
| 20260506174555 | 62 | 150 | 3.0 | 8.0 | 0.00 | 0.25 | 0.25 | 89 | 1007.8 |
| 20260506174041 | 62 | 166 | 2.0 | 9.0 | 0.00 | 0.25 | 0.25 | 89 | 1007.8 |
| 20260506173544 | 62 | 140 | 3.0 | 9.0 | 0.00 | 0.25 | 0.25 | 89 | 1007.8 |
| 20260506173053 | 62 | 154 | 4.0 | 8.0 | 0.00 | 0.25 | 0.25 | 88 | 1007.7 |
| 20260506172541 | 62 | 169 | 2.0 | 8.0 | 0.00 | 0.25 | 0.25 | 89 | 1007.7 |
| 20260506172042 | 62 | 192 | 3.0 | 8.0 | 0.00 | 0.25 | 0.25 | 88 | 1007.7 |
| 20260506171558 | 62 | 165 | 1.0 | 8.0 | 0.00 | 0.25 | 0.25 | 89 | 1007.7 |
| 20260506171041 | 62 | 155 | 2.0 | 7.0 | 0.00 | 0.25 | 0.25 | 89 | 1007.7 |
| 20260506170540 | 62 | 0 | 1.0 | 8.0 | 0.00 | 0.25 | 0.25 | 90 | 1007.7 |
| 20260506170049 | 62 | 192 | 3.0 | 11.0 | 0.00 | 0.25 | 0.25 | 90 | 1007.7 |
| 20260506165542 | 61 | 166 | 4.0 | 11.0 | 0.00 | 0.25 | 0.25 | 89 | 1007.7 |
| 20260506165041 | 61 | 143 | 3.0 | 8.0 | 0.00 | 0.25 | 0.25 | 90 | 1007.8 |
| 20260506164558 | 61 | 169 | 2.0 | 10.0 | 0.00 | 0.25 | 0.25 | 90 | 1007.7 |
| 20260506164041 | 61 | 148 | 4.0 | 11.0 | 0.00 | 0.25 | 0.25 | 90 | 1007.7 |
| 20260506163540 | 61 | 165 | 4.0 | 11.0 | 0.00 | 0.25 | 0.25 | 90 | 1007.7 |
| 20260506163054 | 61 | 181 | 5.0 | 11.0 | 0.00 | 0.25 | 0.25 | 90 | 1007.8 |
| 20260506162540 | 61 | 176 | 3.0 | 11.0 | 0.00 | 0.25 | 0.25 | 91 | 1007.8 |
| 20260506162039 | 61 | 143 | 4.0 | 11.0 | 0.00 | 0.25 | 0.25 | 91 | 1007.7 |
| 20260506161604 | 61 | 0 | 4.0 | 12.0 | 0.00 | 0.25 | 0.25 | 91 | 1007.7 |
| 20260506161040 | 61 | 174 | 5.0 | 12.0 | 0.00 | 0.25 | 0.25 | 91 | 1007.8 |
| 20260506160540 | 61 | 158 | 2.0 | 11.0 | 0.00 | 0.25 | 0.25 | 92 | 1007.7 |
| 20260506160052 | 61 | 181 | 4.0 | 14.0 | 0.00 | 0.25 | 0.25 | 91 | 1007.7 |
| 20260506155541 | 61 | 128 | 2.0 | 14.0 | 0.00 | 0.25 | 0.25 | 92 | 1007.7 |
| 20260506155041 | 61 | 148 | 5.0 | 13.0 | 0.00 | 0.25 | 0.25 | 91 | 1007.9 |
| 20260506154610 | 61 | 178 | 5.0 | 14.0 | 0.01 | 0.25 | 0.25 | 92 | 1007.8 |
| 20260506154041 | 61 | 148 | 4.0 | 14.0 | 0.01 | 0.25 | 0.25 | 92 | 1007.8 |
| 20260506153541 | 60 | 183 | 5.0 | 13.0 | 0.02 | 0.25 | 0.25 | 92 | 1007.7 |
| 20260506153049 | 61 | 161 | 4.0 | 12.0 | 0.03 | 0.25 | 0.25 | 92 | 1007.8 |
| 20260506152541 | 61 | 182 | 5.0 | 14.0 | 0.03 | 0.25 | 0.25 | 92 | 1007.8 |
| 20260506152039 | 61 | 202 | 3.0 | 14.0 | 0.03 | 0.25 | 0.25 | 92 | 1007.8 |
| 20260506151551 | 61 | 197 | 5.0 | 12.0 | 0.03 | 0.25 | 0.25 | 93 | 1007.7 |
| 20260506151038 | 61 | 150 | 5.0 | 11.0 | 0.03 | 0.25 | 0.25 | 92 | 1007.7 |
| 20260506150541 | 61 | 171 | 3.0 | 8.0 | 0.03 | 0.25 | 0.25 | 93 | 1007.5 |
| 20260506150054 | 60 | 171 | 3.0 | 9.0 | 0.03 | 0.25 | 0.25 | 93 | 1007.6 |
| 20260506145545 | 60 | 146 | 2.0 | 12.0 | 0.03 | 0.25 | 0.25 | 92 | 1007.7 |
| 20260506145039 | 60 | 159 | 2.0 | 12.0 | 0.02 | 0.24 | 0.24 | 92 | 1007.8 |
| 20260506144601 | 60 | 146 | 4.0 | 12.0 | 0.02 | 0.24 | 0.24 | 92 | 1007.9 |
| 20260506144038 | 60 | 184 | 5.0 | 9.0 | 0.01 | 0.23 | 0.23 | 92 | 1008.0 |
| 20260506143538 | 60 | 142 | 3.0 | 9.0 | 0.01 | 0.23 | 0.23 | 92 | 1008.1 |
| 20260506142540 | 59 | 0 | 0.0 | 4.0 | 0.12 | 0.21 | 0.21 | 92 | 1008.6 |
| 20260506142042 | 59 | 150 | 0.0 | 6.0 | 0.10 | 0.19 | 0.19 | 92 | 1008.8 |
| 20260506141549 | 59 | 148 | 0.0 | 6.0 | 0.10 | 0.18 | 0.18 | 91 | 1008.7 |
| 20260506141042 | 59 | 146 | 1.0 | 6.0 | 0.09 | 0.17 | 0.17 | 91 | 1008.7 |
| 20260506140542 | 60 | 181 | 1.0 | 9.0 | 0.09 | 0.16 | 0.16 | 91 | 1008.5 |
| 20260506140057 | 60 | 178 | 1.0 | 9.0 | 0.06 | 0.13 | 0.13 | 91 | 1008.5 |
| 20260506135542 | 60 | 142 | 2.0 | 8.0 | 0.04 | 0.11 | 0.11 | 91 | 1008.3 |
| 20260506135037 | 60 | 168 | 1.0 | 8.0 | 0.04 | 0.10 | 0.10 | 91 | 1008.4 |
| 20260506134544 | 60 | 0 | 1.0 | 8.0 | 0.04 | 0.10 | 0.10 | 91 | 1008.3 |
| 20260506134042 | 60 | 163 | 3.0 | 8.0 | 0.04 | 0.10 | 0.10 | 91 | 1008.3 |
| 20260506133543 | 60 | 181 | 4.0 | 8.0 | 0.03 | 0.09 | 0.09 | 91 | 1008.3 |
| 20260506133049 | 60 | 150 | 1.0 | 8.0 | 0.03 | 0.09 | 0.09 | 91 | 1008.4 |
| 20260506132541 | 59 | 0 | 3.0 | 8.0 | 0.03 | 0.09 | 0.09 | 91 | 1008.3 |
| 20260506132044 | 59 | 157 | 3.0 | 7.0 | 0.03 | 0.09 | 0.09 | 91 | 1008.2 |
| 20260506131551 | 59 | 197 | 1.0 | 6.0 | 0.02 | 0.08 | 0.08 | 91 | 1008.2 |
| 20260506131039 | 59 | 0 | 2.0 | 7.0 | 0.02 | 0.08 | 0.08 | 90 | 1008.3 |
| 20260506130540 | 59 | 186 | 2.0 | 7.0 | 0.02 | 0.07 | 0.07 | 90 | 1008.2 |
| 20260506130053 | 59 | 180 | 2.0 | 7.0 | 0.02 | 0.07 | 0.07 | 90 | 1008.4 |
| 20260506125538 | 59 | 182 | 3.0 | 7.0 | 0.02 | 0.07 | 0.07 | 90 | 1008.3 |
| 20260506125041 | 59 | 167 | 1.0 | 5.0 | 0.01 | 0.06 | 0.06 | 90 | 1008.2 |
| 20260506124554 | 59 | 187 | 0.0 | 4.0 | 0.02 | 0.06 | 0.06 | 90 | 1008.3 |
| 20260506124039 | 59 | 180 | 1.0 | 4.0 | 0.02 | 0.06 | 0.06 | 90 | 1008.5 |
| 20260506123546 | 59 | 0 | 1.0 | 4.0 | 0.02 | 0.06 | 0.06 | 90 | 1008.4 |
| 20260506123047 | 59 | 0 | 1.0 | 4.0 | 0.02 | 0.06 | 0.06 | 89 | 1008.5 |
| 20260506122540 | 59 | 178 | 0.0 | 3.0 | 0.03 | 0.06 | 0.06 | 89 | 1008.6 |
| 20260506122041 | 59 | 177 | 1.0 | 7.0 | 0.03 | 0.06 | 0.06 | 89 | 1008.7 |
| 20260506121552 | 59 | 173 | 3.0 | 7.0 | 0.04 | 0.06 | 0.06 | 89 | 1008.6 |
| 20260506121042 | 59 | 176 | 1.0 | 6.0 | 0.04 | 0.06 | 0.06 | 89 | 1008.8 |
| 20260506120544 | 59 | 0 | 1.0 | 5.0 | 0.04 | 0.05 | 0.05 | 88 | 1008.7 |
| 20260506120047 | 59 | 0 | 1.0 | 6.0 | 0.05 | 0.05 | 0.05 | 88 | 1008.7 |
| 20260506115542 | 59 | 186 | 2.0 | 6.0 | 0.05 | 0.05 | 0.05 | 88 | 1008.7 |
| 20260506115042 | 59 | 177 | 1.0 | 5.0 | 0.04 | 0.04 | 0.04 | 87 | 1009.0 |
| 20260506114558 | 59 | 0 | 0.0 | 6.0 | 0.04 | 0.04 | 0.04 | 87 | 1008.9 |
| 20260506114041 | 59 | 0 | 2.0 | 6.0 | 0.04 | 0.04 | 0.04 | 86 | 1008.8 |
| 20260506113541 | 59 | 174 | 2.0 | 6.0 | 0.04 | 0.04 | 0.04 | 86 | 1008.8 |
| 20260506113059 | 59 | 0 | 0.0 | 6.0 | 0.04 | 0.04 | 0.04 | 86 | 1008.8 |
| 20260506112543 | 60 | 139 | 2.0 | 6.0 | 0.03 | 0.03 | 0.03 | 85 | 1008.9 |
| 20260506112041 | 60 | 165 | 1.0 | 7.0 | 0.03 | 0.03 | 0.03 | 84 | 1008.9 |
| 20260506111600 | 61 | 164 | 2.0 | 8.0 | 0.02 | 0.02 | 0.02 | 82 | 1008.8 |
| 20260506111046 | 61 | 199 | 3.0 | 10.0 | 0.02 | 0.02 | 0.02 | 81 | 1008.6 |
| 20260506110542 | 61 | 196 | 1.0 | 10.0 | 0.01 | 0.01 | 0.01 | 80 | 1008.3 |
| 20260506110056 | 62 | 131 | 4.0 | 11.0 | 0.00 | 0.00 | 0.00 | 78 | 1008.3 |
| 20260506105542 | 62 | 162 | 4.0 | 11.0 | 0.00 | 0.00 | 0.00 | 77 | 1008.1 |
| 20260506105039 | 62 | 181 | 5.0 | 11.0 | 0.00 | 0.00 | 0.00 | 76 | 1008.0 |
| 20260506104557 | 62 | 182 | 5.0 | 9.0 | 0.00 | 0.00 | 0.00 | 75 | 1008.0 |
| 20260506104039 | 63 | 179 | 2.0 | 9.0 | 0.00 | 0.00 | 0.00 | 74 | 1007.9 |
| 20260506103541 | 63 | 186 | 4.0 | 9.0 | 0.00 | 0.00 | 0.00 | 74 | 1007.8 |
| 20260506103058 | 63 | 184 | 3.0 | 9.0 | 0.00 | 0.00 | 0.00 | 73 | 1007.8 |
| 20260506102540 | 63 | 0 | 4.0 | 9.0 | 0.00 | 0.00 | 0.00 | 72 | 1007.6 |
| 20260506102040 | 63 | 158 | 4.0 | 9.0 | 0.00 | 0.00 | 0.00 | 71 | 1007.6 |
| 20260506101553 | 63 | 178 | 3.0 | 9.0 | 0.00 | 0.00 | 0.00 | 72 | 1007.6 |
| 20260506101040 | 62 | 142 | 3.0 | 8.0 | 0.00 | 0.00 | 0.00 | 72 | 1007.6 |
| 20260506100540 | 62 | 182 | 2.0 | 8.0 | 0.00 | 0.00 | 0.00 | 73 | 1007.5 |
| 20260506100054 | 62 | 170 | 2.0 | 6.0 | 0.00 | 0.00 | 0.00 | 74 | 1007.5 |
| 20260506095540 | 61 | 165 | 2.0 | 7.0 | 0.00 | 0.00 | 0.00 | 74 | 1007.5 |
| 20260506095043 | 61 | 170 | 0.0 | 7.0 | 0.00 | 0.00 | 0.00 | 74 | 1007.5 |
| 20260506094555 | 61 | 150 | 2.0 | 4.0 | 0.00 | 0.00 | 0.00 | 75 | 1007.4 |
| 20260506094042 | 61 | 0 | 0.0 | 5.0 | 0.00 | 0.00 | 0.00 | 75 | 1007.5 |
| 20260506093542 | 61 | 0 | 0.0 | 5.0 | 0.00 | 0.00 | 0.00 | 75 | 1007.5 |
| 20260506093046 | 61 | 0 | 0.0 | 4.0 | 0.00 | 0.00 | 0.00 | 75 | 1007.5 |
| 20260506092540 | 61 | 191 | 0.0 | 3.0 | 0.00 | 0.00 | 0.00 | 75 | 1007.5 |
| 20260506092040 | 61 | 0 | 0.0 | 5.0 | 0.00 | 0.00 | 0.00 | 76 | 1007.6 |
| 20260506091551 | 61 | 190 | 0.0 | 5.0 | 0.00 | 0.00 | 0.00 | 75 | 1007.6 |
| 20260506091042 | 60 | 0 | 2.0 | 5.0 | 0.00 | 0.00 | 0.00 | 76 | 1007.5 |
| 20260506090541 | 61 | 0 | 0.0 | 2.0 | 0.00 | 0.00 | 0.00 | 76 | 1007.7 |
| 20260506090051 | 60 | 157 | 0.0 | 3.0 | 0.00 | 0.00 | 0.00 | 76 | 1007.8 |
| 20260506085541 | 60 | 0 | 0.0 | 3.0 | 0.00 | 0.00 | 0.00 | 75 | 1007.7 |
| 20260506085040 | 60 | 0 | 0.0 | 11.0 | 0.00 | 0.00 | 0.00 | 77 | 1007.9 |
| 20260506084555 | 59 | 0 | 0.0 | 11.0 | 0.00 | 0.00 | 0.00 | 78 | 1007.9 |
| 20260506084040 | 58 | 209 | 2.0 | 8.0 | 0.00 | 0.00 | 0.00 | 81 | 1007.9 |
| 20260506083539 | 57 | 213 | 0.0 | 3.0 | 0.00 | 0.00 | 0.00 | 82 | 1008.0 |
| 20260506083058 | 57 | 0 | 0.0 | 3.0 | 0.00 | 0.00 | 0.00 | 82 | 1008.0 |
| 20260506082542 | 57 | 0 | 0.0 | 3.0 | 0.00 | 0.00 | 0.00 | 82 | 1008.0 |
| 20260506082042 | 57 | 0 | 0.0 | 2.0 | 0.00 | 0.00 | 0.00 | 82 | 1008.0 |
| 20260506081552 | 57 | 0 | 0.0 | 0.0 | 0.00 | 0.00 | 0.00 | 81 | 1007.9 |
| 20260506081040 | 57 | 0 | 0.0 | 3.0 | 0.00 | 0.00 | 0.00 | 81 | 1008.0 |
| 20260506080541 | 57 | 0 | 0.0 | 3.0 | 0.00 | 0.00 | 0.00 | 81 | 1007.9 |
| 20260506073047 | 57 | 0 | 0.0 | 5.0 | 0.00 | 0.00 | 0.00 | 76 | 1007.9 |
| 20260506072542 | 58 | 0 | 0.0 | 3.0 | 0.00 | 0.00 | 0.00 | 77 | 1008.1 |
| 20260506072042 | 58 | 211 | 0.0 | 4.0 | 0.00 | 0.00 | 0.00 | 76 | 1008.1 |
| 20260506071551 | 58 | 0 | 1.0 | 4.0 | 0.00 | 0.00 | 0.00 | 76 | 1008.3 |
| 20260506071038 | 58 | 235 | 0.0 | 3.0 | 0.00 | 0.00 | 0.00 | 75 | 1008.3 |
| 20260506070541 | 58 | 0 | 0.0 | 3.0 | 0.00 | 0.00 | 0.00 | 75 | 1008.2 |